Regional Weather Roundup
Issued by NWS Green Bay, WI

Home | Current Version | Previous Version | Graphics & Text | Print | Product List | Glossary Off
Versions: 1 2 3 4 5 6 7 8 9 10 11 12 13 14 15 16 17 18 19 20 21 22 23 24 25 26 27 28 29 30 31 32 33 34 35 36 37 38 39 40 41 42 43 44 45 46 47 48 49 50

000
ASUS43 KGRB 041411
RWRGRB

NORTH-CENTRAL AND NORTHEAST WISCONSIN REGIONAL WEATHER ROUNDUP
NATIONAL WEATHER SERVICE GREEN BAY WI
800 AM CST SUN DEC 04 2016

WIZ005-009-010>012-018-019-041500-
NORTH CENTRAL WISCONSIN

CITY           SKY/WX    TMP DP  RH WIND       PRES   REMARKS
IRONWOOD       FLURRIES  27  24  89 SE5       30.01F
MANITOWISH WTR LGT SNOW  26  26 100 SE6       30.00F
ARBOR VITAE    LGT SNOW  28  26  91 S6        30.01F
EAGLE RIVER    LGT SNOW  26  22  85 S5        30.03F
LAND O LAKES   LGT SNOW  27  23  86 S5        30.04F
RHINELANDER    LGT SNOW  26  25  96 SE5       30.04F FOG
PHILLIPS       LGT SNOW  27  26  97 SE6       30.00F
ANTIGO         LGT SNOW  26  24  96 SE8       30.06F
TOMAHAWK       LGT SNOW  26  24  93 CALM      30.04F
MERRILL        LGT SNOW  27  26  96 SE3       30.05F
$$

WIZ013-073-041500-
NORTHEAST WISCONSIN

CITY           SKY/WX    TMP DP  RH WIND       PRES   REMARKS
IRON MOUNTAIN  CLOUDY    28  21  75 S8        30.08F
MARINETTE      CLOUDY    31  24  75 CALM      30.16S
OCONTO         CLOUDY    30  23  74 CALM      30.14F
$$

WIZ017-030-035>037-045-041500-
CENTRAL WISCONSIN

CITY           SKY/WX    TMP DP  RH WIND       PRES   REMARKS
MEDFORD        LGT SNOW  27  25  93 SE7       30.01F
WAUSAU         LGT SNOW  27  25  92 SE6       30.05F FOG
MOSINEE        LGT SNOW  27  27 100 SE7       30.06F
MARSHFIELD     LGT SNOW  28  26  92 SE8       30.02F VSB 3/4
WISC RAPIDS    LGT SNOW  29  28  96 SE7       30.06F VSB 1
STEVENS POINT  MIX PCPN  27  27 100 SE6       30.07F
WAUPACA        LGT SNOW  31  29  90 CALM      30.11F VSB 1
SHAWANO        LGT RAIN  31  28  88 CALM      30.13F
CLINTONVILLE   LGT SNOW  30  28  93 SE5       30.12F
WAUTOMA        LGT SNOW  30  28  92 SE5       30.10  FOG
$$

WIZ038-039-048-051-041500-
FOX VALLEY

CITY           SKY/WX    TMP DP  RH WIND       PRES   REMARKS
NWS GREEN BAY  LGT SNOW  31  29  92 S7        30.14F FOG
APPLETON       LGT SNOW  28  28 100 S5        30.11F
OSHKOSH        LGT SNOW  30  27  88 SE7       30.12F VSB 1
FOND DU LAC    LGT SNOW  30  27  88 SE6       30.13F VSB 1
$$

WIZ022-050-052-041500-
EAST CENTRAL WISCONSIN

CITY           SKY/WX    TMP DP  RH WIND       PRES   REMARKS
EPHRAIM        CLOUDY    31  24  75 SW6       30.14S
WASHINGTON ISL CLOUDY    32  25  73 S6        30.15S
STURGEON BAY   CLOUDY    30  24  78 SW6       30.16F
MANITOWOC      LGT SNOW  30  27  88 SW6       30.16F FOG
SHEBOYGAN      LGT SNOW  30  26  85 S3        30.15F FOG
$$

LMZ563-521-522-541>543-041500-
LAKESHORE

STATION/POSITION TIME  TEMP    WIND        PRES    VSBY  WAVE
                       AIR SEA DIR/SP/G                  HT/PER
                 (UTC) (F)     (DEG/KT/KT) (MB)    (MI)  (FT/S)
SHEBOYGAN LKSHOR 1400   32     210/  5/  6 1021.7F
KEWAUNEE LKSHORE 1348   32     240/  4/  7 1020.9F
ALGOMA MARINA    1351          260/  6/  8   N/A
NORTHPORT PIER   1340   33      CALM  /  5 1021.0S
SISTER BAY LKSHO 1338   33     190/  9/ 10   N/A
CHAMBERS ISLAND  1340   33     210/  3/  7 1020.3F
MENOMINEE LKSHOR 1348   31     220/  6/  7 1020.2F
$$



USA.gov is the U.S. government's official web portal to all federal, state and local government web resources and services.